CW5456 Weather Reports


Display with metric or nautical units.
time (UTC)temp
F
wind
direction
speed
MPH
gust
MPH
rain 1hr
in
rain 24hr
in
rain mn
in
humidity
%
barometer
mb
20181018033029 50 199 2.0 3.0 0.00 0.00 0.00 86 1017.7
20181018032529 50 199 2.0 3.0 0.00 0.00 0.00 87 1017.8
20181018032026 50 247 1.0 3.0 0.00 0.00 0.00 87 1017.8
20181018031529 51 247 2.0 3.0 0.00 0.00 0.00 87 1017.8
20181018031026 51 247 1.0 2.0 0.00 0.00 0.00 87 1017.8
20181018030526 51 247 1.0 2.0 0.00 0.00 0.00 87 1017.8
20181018030026 51 247 1.0 2.0 0.00 0.00 0.00 86 1017.7
20181018025526 51 247 1.0 2.0 0.00 0.00 0.00 86 1017.7
20181018025025 51 247 2.0 2.0 0.00 0.00 0.00 86 1017.7
20181018024525 52 247 0.0 2.0 0.00 0.00 0.00 86 1017.6
20181018024025 52 247 0.0 4.0 0.00 0.00 0.00 86 1017.6
20181018023525 52 247 0.0 4.0 0.00 0.00 0.00 85 1017.7
20181018023028 52 247 2.0 4.0 0.00 0.00 0.00 85 1017.8
20181018022524 52 247 3.0 4.0 0.00 0.00 0.00 84 1017.8
20181018022024 52 247 1.0 4.0 0.00 0.00 0.00 84 1017.8
20181018021525 52 247 3.0 4.0 0.00 0.00 0.00 83 1017.9
20181018021025 53 244 3.0 4.0 0.00 0.00 0.00 83 1017.9
20181018020524 53 244 0.0 6.0 0.00 0.00 0.00 83 1017.8
20181018020024 53 258 3.0 6.0 0.00 0.00 0.00 83 1017.7
20181018015524 53 244 6.0 6.0 0.00 0.00 0.00 82 1017.7
20181018015023 53 299 3.0 7.0 0.00 0.00 0.00 82 1017.7
20181018014527 53 268 5.0 7.0 0.00 0.00 0.00 82 1017.6
20181018014024 54 278 3.0 5.0 0.00 0.00 0.00 81 1017.7
20181018013523 54 310 3.0 7.0 0.00 0.00 0.00 80 1017.6
20181018013026 54 227 1.0 9.0 0.00 0.00 0.00 80 1017.6
20181018012523 55 290 6.0 9.0 0.00 0.00 0.00 79 1017.5
20181018012023 55 262 3.0 8.0 0.00 0.00 0.00 78 1017.4
20181018011526 55 308 6.0 8.0 0.00 0.00 0.00 78 1017.5
20181018011023 55 342 2.0 7.0 0.00 0.00 0.00 79 1017.4
20181018010522 54 297 5.0 7.0 0.00 0.00 0.00 80 1017.4
20181018010023 54 273 3.0 6.0 0.00 0.00 0.00 81 1017.4
20181018005528 54 249 4.0 6.0 0.00 0.00 0.00 81 1017.3
20181018005022 54 249 1.0 6.0 0.00 0.00 0.00 81 1017.3
20181018004522 54 254 3.0 6.0 0.00 0.00 0.00 82 1017.3
20181018004021 54 248 2.0 6.0 0.00 0.00 0.00 83 1017.4
20181018003521 54 260 3.0 4.0 0.00 0.00 0.00 83 1017.4
20181018003022 55 272 0.0 7.0 0.00 0.00 0.00 83 1017.4
20181018002524 55 272 4.0 7.0 0.00 0.00 0.00 82 1017.5
20181018002024 55 262 5.0 7.0 0.00 0.00 0.00 82 1017.5
20181018001521 55 295 4.0 6.0 0.00 0.00 0.00 81 1017.4
20181018001021 55 251 2.0 7.0 0.00 0.00 0.00 81 1017.5
20181018000521 55 332 3.0 7.0 0.00 0.00 0.00 81 1017.5
20181018000020 55 288 3.0 5.0 0.00 0.00 0.00 82 1017.5
20181017235521 54 291 3.0 4.0 0.00 0.00 0.00 82 1017.5
20181017235020 55 327 2.0 3.0 0.00 0.00 0.00 83 1017.4
20181017234520 55 327 2.0 3.0 0.00 0.00 0.00 83 1017.4
20181017234020 55 327 1.0 4.0 0.00 0.00 0.00 83 1017.5
20181017233520 55 327 1.0 4.0 0.00 0.00 0.00 83 1017.5
20181017233020 55 337 2.0 5.0 0.00 0.00 0.00 83 1017.6
20181017232519 55 343 3.0 5.0 0.00 0.00 0.00 83 1017.7
20181017232020 55 274 3.0 6.0 0.00 0.00 0.00 83 1017.7
20181017231519 55 239 3.0 6.0 0.00 0.00 0.00 83 1017.8
20181017231019 54 264 2.0 6.0 0.00 0.00 0.00 83 1017.8
20181017230519 54 231 3.0 5.0 0.00 0.00 0.00 84 1017.8
20181017230022 54 284 2.0 4.0 0.00 0.00 0.00 84 1017.8
20181017225518 54 291 0.0 3.0 0.00 0.00 0.00 85 1017.9
20181017225021 55 291 0.0 4.0 0.00 0.00 0.00 86 1017.9
20181017224519 55 303 3.0 4.0 0.00 0.00 0.00 86 1018.0
20181017224018 55 303 1.0 2.0 0.00 0.00 0.00 86 1018.0
20181017223518 55 303 0.0 3.0 0.00 0.00 0.00 86 1018.0
20181017223018 55 303 0.0 3.0 0.00 0.00 0.00 86 1018.1
20181017222518 55 303 1.0 3.0 0.00 0.00 0.00 86 1018.1
20181017222017 55 303 0.0 3.0 0.00 0.00 0.00 86 1018.2
20181017221518 55 302 2.0 3.0 0.00 0.00 0.00 86 1018.3
20181017221017 55 302 2.0 3.0 0.00 0.00 0.00 86 1018.3
20181017220518 55 302 0.0 3.0 0.00 0.00 0.00 86 1018.4
20181017220020 55 301 0.0 0.0 0.00 0.00 0.00 85 1018.4
20181017215517 55 301 0.0 0.0 0.00 0.00 0.00 84 1018.5
20181017215017 55 301 0.0 0.0 0.00 0.00 0.00 83 1018.5
20181017214517 55 301 0.0 0.0 0.00 0.00 0.00 84 1018.5
20181017214019 55 301 0.0 0.0 0.00 0.00 0.00 84 1018.5
20181017213519 55 301 0.0 0.0 0.00 0.00 0.00 84 1018.7
20181017213019 55 301 0.0 0.0 0.00 0.00 0.00 85 1018.7
20181017212516 55 301 0.0 0.0 0.00 0.00 0.00 85 1018.8
20181017211516 55 301 0.0 0.0 0.00 0.00 0.00 83 1018.9
20181017211016 55 301 0.0 0.0 0.00 0.00 0.00 83 1019.1
20181017210515 55 301 0.0 0.0 0.00 0.00 0.00 83 1019.1
20181017210015 55 301 0.0 1.0 0.00 0.00 0.00 84 1019.2
20181017205515 55 301 0.0 1.0 0.00 0.00 0.00 84 1019.4
20181017205014 55 301 0.0 2.0 0.00 0.00 0.00 84 1019.4
20181017204514 55 301 0.0 2.0 0.00 0.00 0.00 86 1019.5
20181017204014 55 301 0.0 2.0 0.00 0.00 0.00 85 1019.6
20181017203517 55 301 0.0 2.0 0.00 0.00 0.00 85 1019.7
20181017203017 55 301 1.0 3.0 0.00 0.00 0.00 84 1019.7
20181017202517 55 301 1.0 3.0 0.00 0.00 0.00 85 1019.8
20181017202013 55 301 3.0 3.0 0.00 0.00 0.00 84 1019.9
20181017201514 55 301 0.0 2.0 0.00 0.00 0.00 84 1020.0
20181017201013 55 301 0.0 2.0 0.00 0.00 0.00 84 1020.0
20181017200514 55 301 0.0 2.0 0.00 0.00 0.00 85 1020.0
20181017200013 54 301 1.0 2.0 0.00 0.00 0.00 84 1020.1
20181017195513 55 301 1.0 2.0 0.00 0.00 0.00 84 1020.1
20181017195013 54 301 2.0 2.0 0.00 0.00 0.00 84 1020.1
20181017194513 54 301 2.0 2.0 0.00 0.00 0.00 84 1020.3
20181017194012 54 301 0.0 2.0 0.00 0.00 0.00 85 1020.3
20181017193512 54 301 1.0 2.0 0.00 0.00 0.00 85 1020.4
20181017193012 54 301 0.0 3.0 0.00 0.00 0.00 85 1020.5
20181017192512 54 301 1.0 3.0 0.00 0.00 0.00 85 1020.6
20181017192012 54 301 2.0 2.0 0.00 0.00 0.00 86 1020.6
20181017191515 54 301 0.0 3.0 0.00 0.00 0.00 86 1020.6
20181017191015 54 301 1.0 3.0 0.00 0.00 0.00 86 1020.6
20181017190512 54 301 1.0 1.0 0.00 0.00 0.00 85 1020.7
20181017190011 54 301 0.0 1.0 0.00 0.00 0.00 85 1020.7
20181017185511 54 301 0.0 2.0 0.00 0.00 0.00 86 1020.8
20181017185013 54 301 0.0 2.0 0.00 0.00 0.00 86 1020.9
20181017184514 54 301 0.0 2.0 0.00 0.00 0.00 86 1020.8
20181017184014 54 301 0.0 2.0 0.00 0.00 0.00 86 1020.9
20181017183511 54 301 1.0 2.0 0.00 0.00 0.00 86 1020.8
20181017183010 54 301 0.0 1.0 0.00 0.00 0.00 87 1020.9
20181017182510 53 301 0.0 2.0 0.00 0.00 0.00 87 1021.0
20181017182010 53 301 0.0 2.0 0.00 0.00 0.00 87 1020.9
20181017181513 53 301 1.0 2.0 0.00 0.00 0.00 86 1021.0
20181017181013 53 301 1.0 3.0 0.00 0.00 0.00 86 1021.1
20181017180510 53 301 0.0 3.0 0.00 0.00 0.00 87 1021.1
20181017180040 53 301 2.0 4.0 0.00 0.00 0.00 87 1021.2
20181017175512 53 301 2.0 4.0 0.00 0.00 0.00 88 1021.2
20181017175010 52 301 3.0 4.0 0.00 0.00 0.00 88 1021.2
20181017174509 52 301 3.0 5.0 0.00 0.00 0.00 88 1021.2
20181017174009 52 301 4.0 5.0 0.00 0.00 0.00 89 1021.2
20181017173509 52 301 3.0 5.0 0.00 0.00 0.00 89 1021.3
20181017173009 52 299 3.0 7.0 0.00 0.00 0.00 89 1021.3
20181017172508 52 327 3.0 7.0 0.00 0.00 0.00 90 1021.3
20181017172011 52 276 5.0 7.0 0.00 0.00 0.00 90 1021.3
20181017171509 52 298 5.0 5.0 0.00 0.00 0.00 91 1021.3
20181017171041 52 295 5.0 6.0 0.00 0.00 0.00 91 1021.2
20181017170508 52 295 3.0 7.0 0.00 0.00 0.00 91 1021.2
20181017170008 51 294 5.0 7.0 0.00 0.00 0.00 91 1021.3
20181017165508 51 253 7.0 7.0 0.00 0.00 0.00 92 1021.3
20181017165008 51 275 3.0 5.0 0.00 0.00 0.00 93 1021.3
20181017164508 51 269 4.0 5.0 0.00 0.00 0.00 93 1021.3
20181017164038 50 274 3.0 4.0 0.00 0.00 0.00 94 1021.3
20181017163507 50 298 2.0 4.0 0.00 0.00 0.00 94 1021.3
20181017163010 50 343 3.0 4.0 0.00 0.00 0.00 94 1021.3
20181017162537 50 343 2.0 4.0 0.00 0.00 0.00 94 1021.3
20181017162007 50 38 0.0 4.0 0.00 0.00 0.00 95 1021.3
20181017161507 49 38 2.0 3.0 0.00 0.00 0.00 95 1021.2
20181017161006 49 38 1.0 2.0 0.00 0.00 0.00 95 1021.2
20181017160510 48 38 0.0 1.0 0.00 0.00 0.00 95 1021.2
20181017160040 48 38 1.0 2.0 0.00 0.00 0.00 95 1021.2
20181017155539 47 38 0.0 3.0 0.00 0.00 0.00 95 1021.1
20181017155036 47 40 1.0 3.0 0.00 0.00 0.00 95 1021.1
20181017154536 47 41 0.0 3.0 0.00 0.00 0.00 95 1021.1
20181017154035 47 48 0.0 2.0 0.00 0.00 0.00 95 1021.2
20181017153506 46 352 0.0 2.0 0.00 0.00 0.00 95 1021.1
20181017153035 46 352 2.0 2.0 0.00 0.00 0.00 94 1021.1
20181017152535 46 352 0.0 2.0 0.00 0.00 0.00 94 1021.0
20181017152035 46 352 0.0 1.0 0.00 0.00 0.00 94 1020.9
20181017151535 46 352 0.0 1.0 0.00 0.00 0.00 94 1020.9
20181017151035 46 332 0.0 1.0 0.00 0.00 0.00 94 1020.9
20181017150505 46 346 0.0 2.0 0.00 0.00 0.00 94 1020.9
20181017150034 46 346 0.0 2.0 0.00 0.00 0.00 94 1020.9
20181017145534 46 346 0.0 1.0 0.00 0.00 0.00 94 1021.0
20181017145034 46 346 0.0 0.0 0.00 0.00 0.00 94 1021.0
20181017144534 46 346 0.0 1.0 0.00 0.00 0.00 94 1020.9
20181017144034 46 346 0.0 1.0 0.00 0.00 0.00 94 1020.9
20181017143534 46 346 0.0 2.0 0.00 0.00 0.00 94 1020.9
20181017143034 46 346 0.0 2.0 0.00 0.00 0.00 94 1020.9
20181017142504 46 346 0.0 1.0 0.00 0.00 0.00 94 1020.8
20181017142037 46 346 0.0 1.0 0.00 0.00 0.00 94 1020.9
20181017141534 46 346 0.0 2.0 0.00 0.00 0.00 94 1020.8
20181017141033 46 346 0.0 2.0 0.00 0.00 0.00 93 1020.9
20181017140536 46 346 0.0 2.0 0.00 0.00 0.00 93 1020.9
20181017140033 46 346 1.0 2.0 0.00 0.00 0.00 93 1021.0
20181017135532 46 346 0.0 1.0 0.00 0.00 0.00 93 1021.0
20181017135032 46 346 0.0 2.0 0.00 0.00 0.00 93 1021.0
20181017134535 46 346 0.0 2.0 0.00 0.00 0.00 93 1021.1
20181017134032 46 346 0.0 2.0 0.00 0.00 0.00 93 1021.1
20181017133532 47 346 1.0 2.0 0.00 0.00 0.00 93 1021.1
20181017133032 47 346 0.0 3.0 0.00 0.00 0.00 93 1021.1
20181017132532 47 346 0.0 3.0 0.00 0.00 0.00 93 1021.1
20181017132031 47 346 0.0 1.0 0.00 0.00 0.00 93 1021.2
20181017131531 47 346 0.0 1.0 0.00 0.00 0.00 92 1021.2
20181017131031 47 346 1.0 2.0 0.00 0.00 0.00 92 1021.2
20181017130531 48 346 0.0 3.0 0.00 0.00 0.00 92 1021.1
20181017130034 48 346 0.0 3.0 0.00 0.00 0.00 92 1021.2
20181017125531 49 346 1.0 3.0 0.00 0.00 0.00 92 1021.2
20181017125031 49 346 0.0 7.0 0.00 0.00 0.00 93 1021.2
20181017124530 49 346 3.0 7.0 0.00 0.00 0.00 94 1021.3
20181017124033 49 346 4.0 7.0 0.00 0.00 0.00 93 1021.3
20181017123530 49 352 5.0 7.0 0.00 0.00 0.00 94 1021.3
20181017123030 50 354 5.0 8.0 0.00 0.00 0.00 94 1021.3
20181017122533 49 250 3.0 10.0 0.00 0.00 0.00 94 1021.3
20181017122033 50 332 4.0 10.0 0.00 0.00 0.00 94 1021.3
20181017121530 49 279 5.0 9.0 0.00 0.00 0.00 94 1021.3
20181017121029 49 312 3.0 8.0 0.00 0.00 0.00 95 1021.3
20181017120530 49 305 5.0 8.0 0.00 0.00 0.00 96 1021.3
20181017120029 49 327 5.0 8.0 0.00 0.00 0.00 96 1021.3
20181017115532 48 303 5.0 8.0 0.00 0.00 0.00 95 1021.3
20181017115029 47 293 2.0 6.0 0.00 0.00 0.00 95 1021.3
20181017114529 46 261 2.0 5.0 0.00 0.00 0.00 94 1021.3
20181017114032 46 229 1.0 2.0 0.00 0.00 0.00 94 1021.3
20181017113528 46 229 0.0 2.0 0.00 0.00 0.00 94 1021.3
20181017113031 46 229 1.0 4.0 0.00 0.00 0.00 94 1021.3
20181017112528 46 229 0.0 4.0 0.00 0.00 0.00 94 1021.2
20181017112030 46 138 0.0 4.0 0.00 0.00 0.00 94 1021.2
20181017111528 46 138 1.0 4.0 0.00 0.00 0.00 94 1021.2
20181017111028 46 138 3.0 4.0 0.00 0.00 0.00 94 1021.3
20181017110527 46 138 1.0 4.0 0.00 0.00 0.00 94 1021.2
20181017110028 46 138 1.0 3.0 0.00 0.00 0.00 94 1021.2
20181017105527 46 138 0.0 3.0 0.00 0.00 0.00 93 1021.2
20181017105027 46 138 3.0 3.0 0.00 0.00 0.00 93 1021.2
20181017104527 46 138 1.0 4.0 0.00 0.00 0.00 93 1021.2
20181017104027 46 138 0.0 4.0 0.00 0.00 0.00 93 1021.2
20181017103527 46 138 3.0 4.0 0.00 0.00 0.00 93 1021.2
20181017103027 46 138 3.0 4.0 0.00 0.00 0.00 93 1021.2
20181017102527 46 138 3.0 5.0 0.00 0.00 0.00 94 1021.2
20181017102026 46 138 3.0 5.0 0.00 0.00 0.00 93 1021.2
20181017101527 46 138 4.0 5.0 0.00 0.00 0.00 93 1021.2
20181017101026 47 138 3.0 5.0 0.00 0.00 0.00 93 1021.3
20181017100526 47 138 3.0 6.0 0.00 0.00 0.00 93 1021.2
20181017100028 47 137 4.0 6.0 0.00 0.00 0.00 93 1021.2
20181017095526 47 332 2.0 3.0 0.00 0.00 0.00 93 1021.2
20181017095025 47 332 3.0 3.0 0.00 0.00 0.00 93 1021.2
20181017094528 47 332 1.0 3.0 0.00 0.00 0.00 93 1021.3
20181017094026 47 332 1.0 2.0 0.00 0.00 0.00 93 1021.2
20181017093525 47 332 0.0 1.0 0.00 0.00 0.00 93 1021.2
20181017093028 47 332 0.0 0.0 0.00 0.00 0.00 93 1021.3
20181017092528 47 332 0.0 2.0 0.00 0.00 0.00 93 1021.3
20181017092025 47 332 0.0 2.0 0.00 0.00 0.00 93 1021.2
20181017091528 47 332 1.0 2.0 0.00 0.00 0.00 93 1021.3
20181017091027 47 332 0.0 2.0 0.00 0.00 0.00 93 1021.5
20181017090527 47 332 0.0 2.0 0.00 0.00 0.00 93 1021.6
20181017090027 47 332 2.0 2.0 0.00 0.00 0.00 93 1021.6
20181017085524 47 332 2.0 2.0 0.00 0.00 0.00 93 1021.6
20181017085024 47 332 0.0 3.0 0.00 0.00 0.00 93 1021.7
20181017084527 47 332 2.0 3.0 0.00 0.00 0.00 92 1021.7
20181017084023 47 332 1.0 2.0 0.00 0.00 0.00 93 1021.8
20181017083524 47 332 2.0 2.0 0.00 0.00 0.00 93 1021.8
20181017083023 47 332 1.0 2.0 0.00 0.00 0.00 93 1021.8
20181017082523 47 332 0.0 1.0 0.00 0.00 0.00 92 1021.8
20181017082023 47 332 0.0 2.0 0.00 0.00 0.00 92 1021.8
20181017081523 47 332 0.0 3.0 0.00 0.00 0.00 92 1021.8
20181017081023 47 332 1.0 3.0 0.00 0.00 0.00 92 1021.9
20181017080526 47 332 2.0 3.0 0.00 0.00 0.00 92 1021.9
20181017080022 47 332 2.0 3.0 0.00 0.00 0.00 92 1021.9
20181017075522 47 332 1.0 3.0 0.00 0.00 0.00 92 1021.9
20181017075022 47 332 2.0 3.0 0.00 0.00 0.00 92 1022.0
20181017074522 48 332 2.0 2.0 0.00 0.00 0.00 92 1022.0
20181017074022 48 332 1.0 2.0 0.00 0.00 0.00 92 1022.1
20181017073521 48 332 0.0 0.0 0.00 0.00 0.00 92 1022.2
20181017073021 48 332 0.0 2.0 0.00 0.00 0.00 92 1022.3
20181017072524 48 332 0.0 2.0 0.00 0.00 0.00 92 1022.2
20181017072021 48 332 2.0 2.0 0.00 0.00 0.00 91 1022.3
20181017071521 48 332 1.0 2.0 0.00 0.00 0.00 91 1022.3
20181017071021 48 332 2.0 2.0 0.00 0.00 0.00 91 1022.3
20181017070521 48 332 0.0 1.0 0.00 0.00 0.00 91 1022.3
20181017070024 48 332 0.0 0.0 0.00 0.00 0.00 91 1022.4
20181017065521 48 332 0.0 0.0 0.00 0.00 0.00 92 1022.3
20181017065025 49 332 0.0 0.0 0.00 0.00 0.00 91 1022.3
20181017064520 49 332 0.0 0.0 0.00 0.00 0.00 92 1022.3
20181017064020 49 332 0.0 0.0 0.00 0.00 0.00 92 1022.4
20181017063520 49 332 0.0 0.0 0.00 0.00 0.00 92 1022.3
20181017063020 49 332 0.0 2.0 0.00 0.00 0.00 92 1022.3
20181017062520 49 332 0.0 3.0 0.00 0.00 0.00 92 1022.4
20181017062023 49 332 1.0 3.0 0.00 0.00 0.00 92 1022.4
20181017061523 48 332 1.0 3.0 0.00 0.00 0.00 92 1022.4
20181017061022 48 332 3.0 3.0 0.00 0.00 0.00 91 1022.5
20181017060522 48 332 3.0 3.0 0.00 0.00 0.00 91 1022.5
20181017060019 48 332 3.0 3.0 0.00 0.00 0.00 91 1022.5
20181017055519 49 332 2.0 3.0 0.00 0.00 0.00 91 1022.4
20181017055019 49 332 0.0 2.0 0.00 0.00 0.00 91 1022.5
20181017054521 49 332 0.0 0.0 0.00 0.00 0.00 91 1022.4
20181017054018 49 332 0.0 0.0 0.00 0.00 0.00 91 1022.4
20181017053521 49 332 0.0 2.0 0.00 0.00 0.00 91 1022.4
20181017053018 48 332 0.0 3.0 0.00 0.00 0.00 91 1022.4
20181017052518 48 332 2.0 3.0 0.00 0.00 0.00 91 1022.4
20181017052023 48 332 2.0 3.0 0.00 0.00 0.00 91 1022.4
20181017051518 48 332 3.0 3.0 0.00 0.00 0.00 91 1022.4
20181017051021 48 332 3.0 3.0 0.00 0.00 0.00 91 1022.5
20181017050518 49 332 3.0 3.0 0.00 0.00 0.00 90 1022.4
20181017050047 49 332 2.0 3.0 0.00 0.00 0.00 90 1022.4
20181017045517 49 332 2.0 3.0 0.00 0.00 0.00 90 1022.4
20181017045017 49 332 3.0 3.0 0.00 0.00 0.00 90 1022.4
20181017044517 49 332 1.0 2.0 0.00 0.00 0.00 90 1022.4
20181017044017 49 332 2.0 2.0 0.00 0.00 0.00 90 1022.3
20181017043517 50 332 0.0 1.0 0.00 0.00 0.00 90 1022.3
20181017043019 50 332 0.0 2.0 0.00 0.00 0.00 90 1022.3
20181017042516 50 332 0.0 2.0 0.00 0.00 0.00 90 1022.3
20181017042016 50 332 0.0 2.0 0.00 0.00 0.00 89 1022.4
20181017041519 50 332 1.0 2.0 0.00 0.00 0.00 90 1022.3
20181017041019 50 332 1.0 2.0 0.00 0.00 0.00 90 1022.4
20181017040516 50 332 0.0 1.0 0.00 0.00 0.00 90 1022.4
20181017040016 50 332 0.0 1.0 0.00 0.00 0.00 90 1022.4
20181017035518 50 332 0.0 1.0 0.00 0.00 0.00 90 1022.4
20181017035015 50 332 0.0 2.0 0.00 0.00 0.00 90 1022.4
20181017034518 50 332 1.0 3.0 0.00 0.00 0.00 90 1022.4
20181017034015 51 332 2.0 3.0 0.00 0.00 0.00 89 1022.4
20181017033515 51 332 0.0 3.0 0.00 0.00 0.00 89 1022.4